Location: Marion Hill
(40.7303°N, 80.2959°W)
Time: 09:38:59
(UTC+00:00)

USA 308 - Pass Details

Date: 29 October 2020
Orbit: 571 x 578 km, 54.0° (Epoch: 23 November)

Event Time Altitude Azimuth Distance (km) Brightness Sun altitude
Rises 23:31:57 0° 314° (NW) 2,785 7.0 -14.1°
Reaches altitude 10° 23:34:21 10° 322° (NW) 1,883 6.0 -14.5°
Maximum altitude 23:38:22 38° 32° (NNE) 879 3.5 -15.3°
Enters shadow 23:39:53 28° 76° (ENE) 1,081 3.7 -15.6°
